Weather in Daugavpils

Latvia     55°52′19″N   26°31′24″E
temp.,
°C
wind,
m/s
gust,
m/s
humid.,
%
clouds,
%
prec.,
mm/h
press.,
hPa
HPBL,
m
10 april, sat
sat1000:00+5ssw51364100 0.0 1014754
03:00+4ssw51370100 0.0 1014540
06:00+3s51275100 0.0 1014411
09:00+5ssw51271100 0.0 1014515
12:00+8ssw61264100 0.0 10141280
15:00+10sw61159100 0.4 10141601
18:00+6w3987100 1.2 1017700
21:00+5w1188100 1.2 101934
11 april, sun
sun1100:00+4s2388100 0.0 102090
03:00+4s1190100 0.0 102222
06:00+3ese1195100 0.0 102210
09:00+5e1392100 0.0 1024173
12:00+8ese3482100 0.0 1024602
15:00+9ese3679100 0.0 1024654
18:00+11ese2677100 0.0 1023265
21:00+10se31084100 0.0 1023276
12 april, mon
mon1200:00+9sse41377100 0.0 1024334
03:00+7sse4118135 0.0 1025257
06:00+6sse41279100 0.0 1024288
09:00+9sse51364100 0.0 1024486
12:00+13sse6114481 0.0 10231231
15:00+15sse6103410 0.0 10211698
18:00+14sse4842100 0.0 10191617
21:00+10sse376297 0.0 1020144
13 april, tue
tue1300:00+8sse386978 0.0 1019164
03:00+8s247283 0.0 101977
06:00+7s2275100 0.0 101828
09:00+9sse237577 0.1 1018131
12:00+11sse2458100 0.0 1018397
15:00+12sw136098 0.0 1017172
18:00+14sw235577 0.0 1016703
21:00+9nnw2478100 0.0 101795
14 april, wed
wed1400:00+6nw4691100 0.0 1017274
03:00+5nnw4791100 0.1 1017296
06:00+4n4793100 0.4 1016327
09:00+4n4795100 1.5 1016352
12:00+4n5793100 0.5 1017408
15:00+3n5993100 0.8 1017436
18:00+3n51194100 0.1 1017491
21:00+2n51294100 0.3 1017504